Orbital Elements at Epoch 2459000.5 (2020-May-31.0) TDB
Reference: JPL 24 (heliocentric ecliptic J2000)
Element | Value | Uncertainty (1-sigma) | Units |
e | .1520574810035609 | 7.7777e-08 | |
a | 3.201410306525037 | 2.7994e-08 | au |
q | 2.714611919656002 | 2.4694e-07 | au |
i | 17.08516631421259 | 4.816e-06 | deg |
node | 272.7069002566402 | 2.3877e-05 | deg |
peri | 65.25118859448148 | 2.8993e-05 | deg |
M | 63.73663979112167 | 1.5347e-05 | deg |
tp | 2458630.077722270813 (2019-May-26.57772227) | 8.9109e-05 | TDB |
period | 2092.234865526794 5.73 | 2.7443e-05 7.513e-08 | d yr |
n | .1720648125751204 | 2.2569e-09 | deg/d |
Q | 3.688208693394071 | 3.2251e-08 | au |
|
| | Orbit Determination Parameters
Additional Information
|